Boothville, LA

12:05 AM CST on February 23, 2017 (GMT -0600)
Boothville

Weather History for KBVE - November, 2013

Change the Weather History Date:

Friday, November 15, 2013

  Actual Average (KAXO) Record (KAXO)
Temperature  
Mean Temperature 66 °F -  
Max Temperature 71 °F 66 °F 75 °F (2003)
Min Temperature 62 °F 62 °F 48 °F (2014)
Cooling Degree Days 2    
Growing Degree Days 16 (Base 50)    
Moisture  
Dew Point 64 °F    
Average Humidity 95    
Maximum Humidity 100    
Minimum Humidity 81    
Precipitation  
Precipitation 0.00 in - - ()
Sea Level Pressure  
Sea Level Pressure 30.04 in    
Wind  
Wind Speed 3 mph (ESE)    
Max Wind Speed 9 mph    
Max Gust Speed -    
Visibility 9 miles    
Events Rain    
Averages and records for this station are not official NWS values.
T = Trace of Precipitation, MM = Missing Value Source: NWS Daily Summary

Daily Weather History Graph

Daily Weather History Graph

Search for Another Location

Airport or City:

Trip Planner

Search our weather history database for the weather conditions in past years. The results will help you decide how hot, cold, wet, or windy it might be!

Date:

Astronomy

Nov. 15, 2013 Rise Set
Actual Time 6:21 AM CST 5:02 PM CST
Civil Twilight 5:56 AM CST 5:27 PM CST
Nautical Twilight 5:27 AM CST 5:56 PM CST
Astronomical Twilight 4:59 AM CST 6:24 PM CST
Moon 3:53 PM CST (11/15) 4:25 AM CST (11/15)
Length of Visible Light 11h 31m
Length of Day
10h 40m
Waxing Gibbous, 96% of the Moon is Illuminated
Nov 15
Waxing Gibbous
Nov 17
Full
Nov 25
Last Quarter
Dec 2
New
Dec 9
First Quarter

Hourly Weather History & Observations

Time (CST) Temp. Dew Point Humidity Pressure Visibility Wind Dir Wind Speed Gust Speed Precip Events Conditions
12:51 AM 64.0 °F 61.0 °F 90% 30.09 in 9.0 mi East 3.5 mph - N/A   Partly Cloudy
1:51 AM 63.0 °F 61.0 °F 93% 30.07 in 9.0 mi ESE 4.6 mph - N/A   Clear
2:51 AM 64.0 °F 61.0 °F 90% 30.07 in 9.0 mi East 3.5 mph - N/A   Clear
3:51 AM 64.0 °F 62.1 °F 93% 30.06 in 10.0 mi ESE 4.6 mph - N/A   Clear
4:51 AM 63.0 °F 62.1 °F 97% 30.05 in 9.0 mi East 3.5 mph - N/A   Mostly Cloudy
5:51 AM 64.0 °F 63.0 °F 96% 30.04 in 9.0 mi East 4.6 mph - N/A   Mostly Cloudy
6:51 AM 64.0 °F 63.0 °F 96% 30.06 in 7.0 mi ESE 4.6 mph - N/A   Overcast
7:51 AM 64.9 °F 64.0 °F 97% 30.06 in 8.0 mi ENE 3.5 mph - 0.00 in Rain Light Rain
8:28 AM 64.4 °F 64.4 °F 100% 30.07 in 8.0 mi NNE 3.5 mph - N/A   Overcast
8:46 AM 64.4 °F 64.4 °F 100% 30.06 in 7.0 mi ENE 3.5 mph - N/A   Mostly Cloudy
8:51 AM 64.0 °F 64.0 °F 100% 30.06 in 7.0 mi East 4.6 mph - N/A   Mostly Cloudy
9:51 AM 66.0 °F 66.0 °F 100% 30.07 in 7.0 mi East 3.5 mph - N/A   Overcast
10:51 AM 66.0 °F 66.0 °F 100% 30.06 in 7.0 mi Calm Calm - N/A   Scattered Clouds
11:18 AM 66.2 °F 66.2 °F 100% 30.05 in 8.0 mi Calm Calm - N/A   Overcast
11:34 AM 66.2 °F 66.2 °F 100% 30.03 in 8.0 mi Calm Calm - N/A   Scattered Clouds
11:51 AM 69.1 °F 66.9 °F 93% 30.03 in 9.0 mi East 3.5 mph - N/A   Scattered Clouds
12:51 PM 70.0 °F 66.9 °F 90% 30.01 in 9.0 mi SSE 4.6 mph - N/A   Mostly Cloudy
1:24 PM 69.8 °F 66.2 °F 88% 30.00 in 10.0 mi South 8.1 mph - N/A   Mostly Cloudy
1:51 PM 71.1 °F 66.0 °F 84% 29.99 in 10.0 mi SSE 9.2 mph - N/A   Mostly Cloudy
2:51 PM 68.0 °F 66.0 °F 93% 29.99 in 9.0 mi SE 6.9 mph - N/A   Overcast
3:10 PM 68.0 °F 66.2 °F 94% 29.98 in 10.0 mi SSE 9.2 mph - N/A   Mostly Cloudy
3:51 PM 70.0 °F 64.0 °F 81% 29.98 in 10.0 mi SE 6.9 mph - N/A   Scattered Clouds
4:51 PM 68.0 °F 64.9 °F 90% 29.98 in 9.0 mi Calm Calm - N/A   Clear
5:51 PM 64.9 °F 64.0 °F 97% 30.00 in 10.0 mi Calm Calm - N/A   Clear
6:51 PM 64.0 °F 64.0 °F 100% 30.02 in 10.0 mi Calm Calm - N/A   Clear
7:51 PM 64.0 °F 64.0 °F 100% 30.03 in 10.0 mi Calm Calm - N/A   Clear
8:51 PM 62.1 °F 62.1 °F 100% 30.04 in 9.0 mi Calm Calm - N/A   Partly Cloudy
9:02 PM 62.6 °F 62.6 °F 100% 30.04 in 9.0 mi Calm Calm - N/A   Mostly Cloudy
9:24 PM - - N/A% 30.04 in 9.0 mi Calm Calm - N/A   Scattered Clouds
9:32 PM - - N/A% 30.04 in 9.0 mi Calm Calm - N/A   Mostly Cloudy
9:51 PM - - N/A% 30.05 in 9.0 mi Calm Calm - N/A   Mostly Cloudy
10:05 PM - - N/A% 30.04 in 9.0 mi Calm Calm - N/A   Partly Cloudy
10:51 PM - - N/A% 30.05 in 9.0 mi ESE 3.5 mph - N/A   Clear
11:51 PM - - N/A% 30.05 in 8.0 mi Calm Calm - N/A   Clear